Location: *
(57.6680°S, 48.3040°W)
Time: 06:55:39
(UTC+00:00)

Daily predictions for brighter satellites

Satellite Brightness Start Highest point End
(mag) Time Altitude Azimuth Time Altitude Azimuth Time Altitude Azimuth
Meteor 2-4 Rocket 3.7 19:13:57 10° SSW 19:19:27 81° ESE 19:24:59 10° NNE
Cosmos 1515 4.2 19:15:48 10° S 19:19:35 41° ESE 19:23:20 10° NE
CZ-4B R/B 4.0 19:14:47 10° SSE 19:20:01 35° E 19:25:07 10° NNE
SL-16 R/B 4.1 19:20:29 10° E 19:21:15 10° E 19:22:02 10° E
Cosmos 1356 3.7 19:18:09 10° SSW 19:21:45 77° WNW 19:25:17 10° N
Okean 2 Rocket 3.8 19:20:59 10° NNE 19:25:10 36° E 19:29:22 10° SSE
Cosmos 1680 Rocket 3.5 19:20:00 10° SSW 19:25:22 78° ESE 19:30:40 10° NE
Resurs 1-4 Rocket 3.9 19:23:08 10° S 19:27:24 25° SW 19:31:37 10° WNW
Cosmos 1980 Rocket 3.3 19:23:23 10° NNE 19:28:08 28° ENE 19:32:55 10° SE
ARGOS Delta rocket 3.8 19:26:34 10° NNE 19:31:02 59° ESE 19:35:46 10° S
COSMO-SKYMED 1 2.9 19:27:32 10° NE 19:31:47 48° ESE 19:36:04 10° S
Helios 1A Rocket 4.3 19:28:53 10° S 19:32:50 37° WSW 19:36:45 10° NW
CZ-2C R/B 3.6 19:29:37 10° SE 19:33:23 22° E 19:37:03 10° NE
Cosmos 1633 4.0 19:30:35 10° NW 19:34:01 36° WSW 19:37:29 10° S
Cosmos 1356 Rocket 3.7 19:30:02 10° S 19:34:15 50° ESE 19:38:29 10° NE
USA 161 0.8 19:31:48 10° NNE 19:34:18 77° ESE 19:36:34 10° SSW
Cosmos 923 Rocket 4.3 19:29:31 10° SSW 19:34:58 79° WNW 19:40:20 10° NNE
Cosmos 1354 Rocket 4.5 19:29:56 10° NW 19:35:17 63° SW 19:40:41 10° SSE
Cosmos 2112 Rocket 4.0 19:31:54 10° SSW 19:37:17 82° ESE 19:42:34 10° NNE
Meteor 1-28 Rocket 4.2 19:37:46 10° N 19:41:32 53° W 19:45:24 10° SSW
Cosmos 2278 3.9 19:36:34 10° NNW 19:42:15 62° ENE 19:47:56 10° SE
Cosmos 2123 Rocket 4.1 19:38:00 10° N 19:44:22 89° ENE 19:50:52 10° SSE
IDEFIX/ARIANE 42P 3.1 19:40:39 10° SSE 19:45:40 41° E 19:50:39 10° NNE
CZ-4B R/B 3.0 19:42:04 10° SSE 19:46:25 87° ENE 19:50:30 10° NNW
Cosmos 1844 Rocket 3.4 19:41:35 10° SSW 19:46:45 33° SSE 19:51:54 10° E
CZ-4B DEB 4.4 19:41:11 10° SSE 19:46:48 58° ENE 19:52:20 10° N
Cosmos 2369 Rocket 3.6 19:42:33 10° WSW 19:47:14 25° SSW 19:51:59 10° SE
CZ-4B R/B 4.0 19:43:58 10° SSE 19:47:49 53° ENE 19:51:47 10° N
Cosmos 1782 Rocket 3.6 19:46:07 10° N 19:50:37 86° E 19:55:11 10° SSE
Okean 1 Rocket 4.5 19:47:53 10° NE 19:51:12 20° E 19:54:27 10° SE
Cosmos 44 Rocket 3.4 19:48:33 10° NW 19:53:27 66° NE 19:57:42 13° SE
CZ-2C R/B 3.7 19:49:23 10° NNE 19:53:59 68° ESE 19:58:43 10° SSW
Cosmos 1777 Rocket 4.2 19:48:52 10° NNW 19:54:07 61° ENE 19:59:26 10° SE
Cosmos 1602 4.2 19:51:14 10° NNW 19:55:12 68° WSW 19:59:17 10° S
GEOS 3 Rocket 4.2 19:55:08 12° ESE 19:59:35 43° NE 20:04:32 10° NNW
Cosmos 1461 3.3 19:56:17 10° SW 19:59:58 38° SSE 20:03:16 13° E
Cosmos 1025 Rocket 3.3 19:56:18 10° S 20:00:36 47° ESE 20:04:53 10° NE
ATLAS 2AS CENTAUR R/B 2.6 19:54:36 10° SW 20:00:46 84° NW 20:07:19 10° NE
Cosmos 2151 Rocket 4.0 19:58:02 10° NNE 20:02:22 46° E 20:06:47 10° SSE
Geosat 4.2 19:57:39 11° SE 20:02:30 57° ENE 20:07:29 10° NNW
Cosmos 1447 Rocket 4.5 20:00:22 10° N 20:06:37 76° E 20:12:54 10° SSE
Cosmos 968 Rocket 4.0 20:03:02 10° NW 20:08:08 58° SW 20:13:17 10° SSE
Okean-O 3.7 20:04:58 13° SE 20:08:17 26° E 20:12:04 10° NNE
PAYLOAD B 4.3 20:04:22 10° SSE 20:10:07 80° ENE 20:15:49 10° NNW
Cosmos 44 3.3 20:05:22 10° NW 20:10:15 79° SW 20:13:52 16° SE
ATLAS 5 CENTAUR R/B 2.3 20:06:49 10° WSW 20:12:47 59° SSE 20:17:37 12° E
PSLV R/B 4.3 20:09:22 10° S 20:13:16 59° WSW 20:17:03 10° NNW
Cosmos 1513 Rocket 4.4 20:07:14 10° S 20:13:25 75° ESE 20:19:35 10° NNE
RESURS DK-1 4.2 20:13:14 10° SSW 20:16:04 17° S 20:17:29 15° SE
Cosmos 2263 Rocket 2.3 20:11:57 10° SW 20:17:42 82° WNW 20:23:25 10° NNE
Meteor 1-5 Rocket 4.1 20:13:17 10° N 20:18:46 76° ENE 20:24:12 10° SSE
SKYMED 2 3.9 20:15:21 10° N 20:19:45 74° WNW 20:24:13 10° SSW
Okean O Rocket 1.8 20:20:40 10° SSE 20:25:09 78° WSW 20:29:34 10° NNW
Cosmos 1656 3.8 20:19:49 10° NW 20:25:18 73° SW 20:30:07 14° SE
Cosmos 972 Rocket 4.5 20:18:53 10° SSW 20:25:38 66° ESE 20:31:36 10° NE
USA 234 3.5 20:19:35 10° ENE 20:26:13 76° NNW 20:32:52 10° WSW
Cosmos 2360 4.3 20:23:43 10° NNW 20:29:24 62° ENE 20:33:45 18° SE
MTI 4.0 20:26:17 10° NE 20:29:29 49° ESE 20:32:44 10° S
Iridium 2 3.7 20:29:38 10° S 20:33:36 89° WNW 20:37:30 10° N
Landsat 4 4.1 20:30:37 10° NE 20:34:18 42° ESE 20:38:01 10° S
Cosmos 1066 Rocket 4.1 20:28:49 10° SSW 20:34:18 89° WNW 20:39:45 10° NNE
Cosmos 1743 3.7 20:32:25 10° NNE 20:35:48 27° E 20:36:14 26° ESE
Cosmos 2322 Rocket 3.1 20:31:31 10° NNE 20:36:26 31° ENE 20:38:51 23° ESE
Cosmos 1500 3.1 20:33:19 10° N 20:37:07 70° E 20:40:14 15° SSE
Lacrosse 4 Rocket 2.9 20:33:39 10° W 20:37:09 26° SSW 20:39:23 17° SSE
Cosmos 1867 4.2 20:32:23 10° W 20:37:38 47° SSW 20:41:02 21° SE
Cosmos 1536 3.2 20:34:39 10° NNW 20:38:41 66° WSW 20:42:47 10° S
NOSS 3-4 (A) 3.8 20:31:25 10° WSW 20:39:00 82° SSE 20:45:55 10° ENE
NOSS 3-4 (C) 3.8 20:31:34 10° WSW 20:39:07 81° SSE 20:46:00 10° ENE
ADEOS II 4.1 20:35:56 10° S 20:40:06 24° SW 20:44:16 10° WNW
Cosmos 1943 Rocket 3.8 20:36:14 10° WSW 20:40:35 22° S 20:43:31 15° SSE
Cosmos 1464 Rocket 4.3 20:34:30 10° SSW 20:40:56 74° W 20:47:21 10° N
IRS-1C Rocket 4.1 20:36:12 10° SSE 20:41:35 85° ENE 20:46:56 10° NNW
Okean 2 3.9 20:39:45 10° SSW 20:43:59 65° W 20:48:11 10° N
Cosmos 1048 Rocket 4.2 20:39:33 10° SSW 20:44:37 48° SE 20:49:34 10° NE
Meteor 1-31 Rocket 3.8 20:41:17 10° S 20:45:08 46° WSW 20:48:53 10° NW
EO 1 Del DPAF 3.3 20:41:59 10° NE 20:45:47 56° ESE 20:49:37 10° S
Cosmos 1697 Rocket 2.8 20:40:18 10° NW 20:45:58 76° SW 20:50:17 18° SSE
Meteor 1-11 Rocket 4.3 20:40:11 10° NNW 20:46:09 64° WSW 20:52:05 10° SSE
Cosmos 1892 Rocket 3.7 20:43:58 10° S 20:48:18 49° ESE 20:52:35 10° NE
Cosmos 1666 3.2 20:45:38 10° NNE 20:49:09 36° E 20:49:33 35° ESE
Thor Agena Rocket 3.9 20:45:08 10° NE 20:49:57 42° ESE 20:54:51 10° S
Cosmos 1484 Rocket 3.2 20:53:27 37° E 20:53:53 38° E 20:57:26 10° NNE
Aureole 1 Rocket 3.5 20:47:51 10° SSW 20:53:58 63° SE 20:58:18 11° NE
Cosmos 2034 Rocket 4.2 20:48:48 10° SSW 20:55:07 77° W 21:01:18 10° N
ATLAS CENTAUR R/B 1.7 20:50:47 10° WNW 20:55:23 69° SSW 20:57:24 31° SE
PAYLOAD A 4.3 20:51:08 10° SSE 20:56:42 78° WSW 21:02:05 10° NNW
Cosmos 1634 Rocket 4.0 20:51:09 10° S 20:57:30 61° ESE 21:03:49 10° NNE
Cosmos 2369 4.3 20:52:43 10° WNW 20:58:24 53° SW 21:02:35 18° SSE
Tsikada Rocket 4.0 20:53:07 10° NNE 20:59:10 56° E 21:05:16 10° SSE
Okean 1-7 Rocket 3.6 20:55:53 10° SSW 21:00:37 86° ESE 21:05:15 10° NNE
CZ-4B R/B 3.8 20:55:15 10° SSE 21:00:55 60° WSW 21:06:25 10° NW
Cosmos 2278 Rocket 2.8 20:57:26 10° SSW 21:02:46 38° SE 21:04:24 32° ESE
Okean 2 Rocket 4.4 20:58:57 10° NW 21:03:15 40° WSW 21:07:35 10° S
SL-16 R/B 2.5 20:58:34 10° N 21:03:58 46° ENE 21:06:06 32° ESE
Lacrosse 5 rocket 3.4 21:02:42 10° NNE 21:03:46 13° NNE 21:03:46 13° NNE
Cosmos 468 4.4 21:02:23 10° SSW 21:07:44 77° ESE 21:13:04 10° NE
Radarsat Rocket 4.4 21:00:49 10° SSE 21:07:45 75° ENE 21:15:37 10° NNW
Feng Yun 1-1 Rocket 4.3 21:02:34 10° SSE 21:08:39 82° ENE 21:14:34 10° NNW
Cosmos 2360 Rocket 3.2 21:04:44 10° NNE 21:08:56 26° ENE 21:08:56 26° ENE
MSX 3.9 21:04:54 10° SSE 21:10:47 82° WSW 21:16:36 10° NNW
SJ-12 3.8 21:08:58 29° SSE 21:11:03 74° ENE 21:15:12 10° N
Cosmos 1980 Rocket 2.3 21:05:56 10° NW 21:11:41 80° SW 21:15:07 25° SSE
Cosmos 1975 2.8 21:08:01 10° N 21:12:07 67° E 21:13:34 38° SSE
CZ-2C R/B 2.5 21:07:35 11° SSE 21:12:13 74° WSW 21:16:54 10° NNW
Cosmos 1842 3.2 21:08:40 10° S 21:12:44 65° ESE 21:16:43 10° NNE
Cosmos 1300 Rocket 4.0 21:09:26 10° NNW 21:13:52 63° WSW 21:17:58 12° S
ALOS 4.4 21:19:55 13° NE 21:19:55 13° NE 21:20:38 10° NNE
Cosmos 158 Rocket 4.2 21:12:45 10° SSW 21:18:05 74° WNW 21:23:29 10° NNE
NOAA 6 4.3 21:13:23 11° SSE 21:18:31 71° WSW 21:23:41 10° NNW
TRAILBLAZER 4.5 21:15:58 10° NW 21:20:32 83° NE 21:21:36 52° ESE
Cosmos 2346 Rocket 4.4 21:15:09 10° N 21:21:12 65° E 21:27:24 10° SSE
Cosmos 1242 Rocket 2.4 21:18:27 10° N 21:21:52 72° NE 21:21:52 72° NE
Cosmos 1844 3.6 21:18:18 10° SW 21:23:57 73° SE 21:26:59 28° NE
IDEFIX/ARIANE 42P 3.5 21:20:20 10° S 21:25:24 47° WSW 21:30:26 10° NW
Meteor 1-21 4.3 21:22:29 10° SSW 21:28:12 80° WNW 21:33:50 10° N
Meteor 2-5 Rocket 4.5 21:23:02 10° S 21:27:27 34° SE 21:27:27 34° SE
Okean 1 Rocket 3.3 21:24:04 10° NNW 21:28:37 74° WSW 21:31:39 21° S
USA 267 4.0 21:29:21 31° ENE 21:30:48 34° NE 21:36:40 10° NNW
Cosmos 1844 Rocket 2.6 21:25:35 10° SW 21:31:20 89° NW 21:35:39 18° NE
Cosmos 1269 Rocket 3.9 21:27:24 10° SSW 21:32:48 72° ESE 21:34:59 36° NE
Cosmos 2369 Rocket 3.6 21:28:42 10° SW 21:33:12 23° S 21:33:56 22° SSE
SMAP 3.3 21:34:06 51° ENE 21:34:06 51° ENE 21:38:17 10° N
Cosmos 44 Rocket 3.9 21:30:29 10° W 21:35:14 47° SSW 21:36:25 39° SSE
Aureole 2 Rocket 2.9 21:32:59 10° NNW 21:36:01 59° N 21:36:01 59° N
GEOS 3 Rocket 3.7 21:36:15 43° SE 21:37:54 71° SSW 21:43:03 10° WNW
Cosmos 1461 2.9 21:35:25 10° SW 21:39:20 68° NW 21:39:44 62° N
Cosmos 1898 Rocket 3.4 21:34:23 10° NNW 21:39:43 89° ENE 21:41:27 44° SSE
SJ-7 4.4 21:40:46 79° E 21:40:51 79° ENE 21:45:09 10° NNW
Cosmos 2297 4.5 21:36:38 10° SSW 21:41:37 34° SSE 21:41:37 34° SSE
Cosmos 2279 Rocket 3.9 21:36:34 10° S 21:42:57 74° ESE 21:49:15 10° NNE
Okean-O 3.2 21:42:33 25° S 21:45:07 59° WSW 21:49:32 10° NW
Cosmos 2150 Rocket 3.9 21:43:57 10° NNW 21:49:04 63° ENE 21:49:04 63° ENE
ATLAS 2AS CENTAUR R/B 4.3 21:45:45 10° WSW 21:51:01 29° WNW 21:56:34 10° N
Cosmos 44 4.1 21:47:36 10° W 21:52:00 36° SSW 21:52:18 36° S
Cosmos 494 Rocket 3.9 21:48:28 10° SSW 21:53:21 64° SSE 21:53:21 64° SSE
RESURS DK-1 4.2 21:51:26 10° SSW 21:53:24 23° SSW 21:53:24 23° SSW
Cosmos 1937 Rocket 3.5 21:52:05 10° NNW 21:57:29 89° WSW 21:58:25 63° SSE
ATLAS 5 CENTAUR R/B 2.4 21:51:59 10° WSW 21:57:38 61° NW 21:59:11 42° NNE
Meteor 2-9 Rocket 4.2 21:54:02 10° N 21:59:55 72° E 22:00:50 61° SE
Cosmos 2180 Rocket 4.4 21:53:32 10° SSW 22:00:05 79° ESE 22:06:30 10° NNE
Okean O Rocket 4.1 21:57:55 10° S 22:00:53 18° SW 22:03:50 10° W
Cosmos 2285 Rocket 4.1 21:56:43 10° SSW 22:03:16 76° WNW 22:08:25 17° NNE
Cosmos 2251 Rocket 4.2 21:59:12 10° SSW 22:03:10 41° S 22:03:10 41° S
METEOR-M 4.0 22:09:22 78° NE 22:09:22 78° NE 22:14:35 10° NNW
USA 234 4.2 22:05:38 21° NNE 22:09:49 44° NW 22:16:07 10° WSW
BREEZE-M DEB (TANK) 4.4 21:53:55 10° WNW 22:09:50 44° N 22:11:17 39° NNE
Cosmos 1743 3.9 22:07:38 10° NW 22:11:22 43° WSW 22:11:22 43° WSW
Meteor 2-20 4.3 22:05:17 10° N 22:11:26 78° E 22:12:35 60° SSE
Cosmos 990 Rocket 4.1 22:10:17 10° NW 22:15:33 70° WSW 22:15:59 66° SSW
Lacrosse 4 Rocket 3.6 22:14:00 10° SW 22:15:42 17° SSW 22:15:42 17° SSW
Cosmos 2322 Rocket 2.3 22:14:21 10° NW 22:20:06 74° SW 22:20:41 68° S
Cosmos 2298 Rocket 4.1 22:14:54 10° NNW 22:20:13 79° WSW 22:20:13 79° WSW
SJ 16-02 3.6 22:16:15 10° NNW 22:17:08 16° NNW 22:17:08 16° NNW
Cosmos 1867 4.5 22:17:08 10° WSW 22:21:41 38° S 22:21:41 38° S
Cosmos 1943 Rocket 3.8 22:21:37 10° SW 22:25:03 23° S 22:25:03 23° S
Cosmos 1697 Rocket 4.1 22:25:52 10° W 22:30:50 30° SSW 22:32:01 28° S
CORIOLIS 4.4 22:33:14 63° NW 22:33:14 63° NW 22:37:46 10° NNW
Cosmos 1241 Rocket 4.4 22:26:13 10° SW 22:32:45 83° NW 22:32:56 81° NNW
ATLAS CENTAUR R/B 3.2 22:30:50 10° WSW 22:33:38 28° SW 22:33:38 28° SW
CSL-04 Rocket 4.1 22:40:14 58° NW 22:40:14 58° NW 22:44:43 10° NNW
Lacrosse 5 rocket 4.2 22:39:25 10° NW 22:39:27 10° NW 22:39:27 10° NW
NOSS 3-3 (A) 4.2 22:36:07 10° NW 22:44:01 86° NE 22:44:12 85° E
NOSS 3-3 (C) 4.2 22:36:16 10° NW 22:44:09 86° NE 22:44:19 85° ENE
Cosmos 2278 Rocket 2.7 22:41:37 10° SW 22:46:16 58° WSW 22:46:16 58° WSW
SL-16 R/B 2.8 22:42:29 10° WNW 22:47:59 54° SW 22:47:59 54° SW
Cosmos 2360 Rocket 3.1 22:47:06 10° NW 22:50:44 41° NW 22:50:44 41° NW
Cosmos 1980 Rocket 3.6 22:51:28 10° W 22:56:31 31° SSW 22:56:53 31° SSW
USA 267 4.0 23:16:42 44° NW 23:16:42 44° NW 23:21:11 10° WNW
Cosmos 2369 Rocket 4.1 23:13:25 10° SSW 23:15:43 22° SSW 23:15:43 22° SSW
ATLAS 5 CENTAUR R/B 4.4 23:37:56 10° WSW 23:40:46 16° WNW 23:40:46 16° WNW
ATLAS 5 CENTAUR R/B 4.4 23:06:57 10° WSW 23:43:59 87° SSE 23:44:42 81° E
